Lampedusa current weather conditions

sailwx.info

Wind from 230 at 5 knots

Air temperature 29.0° C
Dewpoint 26.0° C

Last reported at 2015-Jul-31 19:50 UTC.
Time now 2015-Aug-01 05:45 UTC

Location: N 35°30' E 012°37'.
View on Google Maps.

See reports from other nearby stations

  
Tides and Currents Weather Stations Pressure Air Temp Water Temp Dewpoint Dewpoint Depression Visibility Wind Speed Wind Dir Waves Ship Positions
date/time (UTC)wind fromknots sea level pressurealtimeterstation pressurevisibilityair tempwater tempwave heightnotes
2015-Jul-31 19:50 230 5 29.0
2015-Jul-31 18:50 230 6 29.0
2015-Jul-31 17:50 220 5 29.0
2015-Jul-31 16:50 220 7 30.0
2015-Jul-31 15:50 200 6 30.0
2015-Jul-31 14:50 230 7 30.0
2015-Jul-31 13:50 230 7 31.0
2015-Jul-31 12:50 230 10 31.0
2015-Jul-31 11:50 230 11 31.0
2015-Jul-31 10:50 230 11 30.0
2015-Jul-31 09:50 230 10 30.0
2015-Jul-31 08:50 220 9 30.0
2015-Jul-31 07:50 220 7 29.0
2015-Jul-31 06:50 230 11 29.0
2015-Jul-31 05:50 200 9 28.0
2015-Jul-31 04:50 170 9 27.0
2015-Jul-31 03:50 190 5 27.0
2015-Jul-31 02:50 180 5 27.0
2015-Jul-31 01:50 230 3 27.0
2015-Jul-30 21:50 310 13 27.0
2015-Jul-30 20:50 200 6 28.0
2015-Jul-30 19:50 190 7 28.0
2015-Jul-30 18:50 180 6 28.0
2015-Jul-30 17:50 160 6 29.0
2015-Jul-30 16:50 140 6 29.0
2015-Jul-30 15:50 110 6 30.0
2015-Jul-30 14:50 060 5 30.0
2015-Jul-30 13:50 030 7 30.0
2015-Jul-30 12:50 010 10 31.0
2015-Jul-30 11:50 010 9 31.0
2015-Jul-30 10:50 020 8 31.0
2015-Jul-30 09:50 360 8 30.0
2015-Jul-30 08:50 350 11 29.0
2015-Jul-30 07:50 350 11 29.0
2015-Jul-30 06:50 340 10 28.0
2015-Jul-30 05:50 330 8 27.0